Home > Weather > Molepolole > Past weeks

Flag for Botswana Weather for the Past 2 Weeks in Molepolole, Botswana

Now
68 °F

Passing clouds.


Feels Like: 68 °F
Forecast: 68 / 93 °F
Wind: 5 mph from South

Location: Seretse Khama International Airport

Current Time: Feb 9, 2016 at 4:44:40 AM

Latest Report: Feb 9, 2016 at 4:00 AM


Visibility: N/A

Pressure: 30.01 "Hg (26.26 "Hg at 1145m altitude)

Humidity: 78%

Dew point: 61 °F

Location of MolepololeLocation

Historic Weather in Molepolole — Graph

°F

Molepolole Temperature Yesterday

Maximum temperature yesterday: 95 °F (at 3:00 PM)
Minimum temperature yesterday: 66 °F (at 11:00 PM)
Average temperature yesterday: 83 °F

High & Low Weather Summary for the Past Weeks

 TemperatureHumidityPressure
High99 °F (Feb 3, 3:00 PM)94% (Feb 8, 11:00 PM)30.24 "Hg (Feb 8, 11:00 PM)
Low66 °F (Jan 26, 5:00 AM)13% (Jan 31, 4:00 PM)29.83 "Hg (Feb 4, 4:00 PM)
Average83 °F40%30.02 "Hg
* Reported Jan 25 5:00 AM — Feb 9 3:00 AM, Molepolole, Weather by CustomWeather, © 2016

Note: Actual official high and low records may vary slightly from our data, if they occured in-between our weather recording intervals... More about our weather records

Advertising

Molepolole Weather History for the Previous 24 Hours

 ConditionsComfort  
Time TempWeatherWind HumidityBarometerVisibility
3:00 AM
Tue, Feb 9
66 °FPassing clouds.3 mph83%30.04 "HgN/A
1:00 AM68 °FPassing clouds.9 mph88%30.04 "HgN/A
12:00 AM68 °FThunderstorms. Passing clouds.10 mph88%30.07 "HgN/A
11:00 PM
Mon, Feb 8
66 °FThunderstorms. Passing clouds.16 mph94%30.09 "HgN/A
10:00 PM77 °FThunderstorms. Partly cloudy.17 mph54%30.04 "HgN/A
9:00 PM82 °FThunderstorms. Passing clouds.5 mph45%30.01 "HgN/A
8:00 PM88 °FThunderstorms. Passing clouds.6 mph35%29.98 "HgN/A
7:00 PM88 °FThunderstorms. Passing clouds.2 mph33%29.95 "HgN/A
6:00 PM88 °FThunderstorms. Partly sunny.8 mph33%29.95 "HgN/A
5:00 PM93 °FThunderstorms. Partly sunny.12 mph26%29.92 "HgN/A
4:00 PM95 °FThunderstorms. Partly sunny.14 mph26%29.95 "HgN/A
3:00 PM95 °FScattered clouds.13 mph26%29.95 "HgN/A
2:00 PM93 °FScattered clouds.9 mph30%30.01 "HgN/A
1:00 PM91 °FScattered clouds.12 mph32%30.04 "HgN/A
12:00 PM90 °FScattered clouds.10 mph41%30.04 "HgN/A
11:00 AM88 °FPassing clouds.12 mph40%30.07 "HgN/A
10:00 AM84 °FPassing clouds.13 mph45%30.07 "HgN/A
9:00 AM81 °FPassing clouds.14 mph51%30.07 "HgN/A
8:00 AM79 °FSunny.15 mph54%30.07 "Hg10 mi
7:00 AM75 °FSunny.10 mph61%30.04 "Hg10 mi
6:00 AM73 °FSunny.9 mph65%30.04 "Hg10 mi
5:00 AM73 °FSunny.8 mph61%30.01 "Hg10 mi
4:00 AM75 °FClear.9 mph57%29.98 "Hg10 mi
Weather by CustomWeather, © 2016

See weather overviewHow to use our weather pages